www.pogodaiklimat.ru

Погода и климат >> Архив погоды >> Мьянма >> Йе


ПОГОДА в Йе

  • Прогноз погоды в Йе
  • Монитор погоды в Йе

АРХИВ ПОГОДЫ в Йе

Время (UTC), дата Ветер
(напр.,м/с)
 
Видим.   Явления Облачность Т
(С)
Тd
(С)
f
(%)
Тe
(С)
Тes
(С)
Комфортность P
(гПа)
Po
(гПа)
Тmin
(С)
Tmax
(С)
R
(мм)
R24
(мм)
S
(см)
09 15.02 СВ 3 5000 м 8/5 200 м
[Cb cap Ac As]
+32.2 +26.5 72 +49 +50 опасность
перегрева
1010.8 1010.0
12 15.02 С 2 3000 м {гроза, дождь} 8/5 200 м
[Cb cap Ac As]
+22.2 +22.2 100 +30 +30 очень
душно
1012.0 1011.2 +34.0 23
00 16.02 В 1 3000 м туман местами 5/5 200 м
[Cb cap]
+24.0 +22.6 92 +31 +32 очень
душно
1012.4 1011.6 +23.2
03 16.02 ЮВ 1 5000 м {туман} 5/5 200 м
[Cb cap]
+26.2 +24.6 91 +37 +43 очень
душно
1013.9 1013.1
06 16.02 В 1 5000 м 5/5 200 м
[Cb cap]
+31.2 +25.4 71 +45 +55 опасность
перегрева
1012.7 1011.9
09 16.02 ЮВ 1 5000 м 5/5 200 м
[Cb cap]
+33.0 +25.8 66 +48 +52 опасность
перегрева
1009.9 1009.1
12 16.02 СВ 1 3000 м 5/5 200 м
[Cb cap]
+28.8 +24.8 79 +41 +41 опасность
перегрева
1011.2 1010.4 +34.8
00 17.02 штиль 0 3000 м туман местами 8/5 200 м
[Frnb Ac As]
+24.2 +22.6 91 +32 +32 очень
душно
1011.5 1010.7 +23.9
03 17.02 5000 м {туман} н/о +25.8 +22.9 84 +34 +42 очень
душно
1013.1 1012.3
06 17.02 СЗ 1 3000 м 5/5 200 м
[Cu Sc]
+33.0 +24.4 61 +46 +56 опасность
перегрева
1011.8 1011.0
09 17.02 СЗ 2 5000 м 5/5 200 м
[Cb cap]
+34.0 +24.0 56 +46 +49 опасность
перегрева
1010.1 1009.3
12 17.02 штиль 0 5000 м 5/5 200 м
[Frnb]
+28.8 +23.0 71 +39 +39 очень
душно
1010.5 1009.7 +36.0
03 18.02 ЮВ 1 5000 м {туман} 5/5 200 м
[Cb cap]
+26.0 +22.9 83 +35 +41 очень
душно
1013.0 1012.2
06 18.02 В 1 5000 м 8/5 200 м
[Frnb Ac As]
+31.0 +23.7 65 +42 +48 опасность
перегрева
1012.1 1011.3
09 18.02 ЮВ 1 5000 м 3/3 200 м
[Cu Sc]
+33.3 +23.4 56 +44 +49 опасность
перегрева
1010.3 1009.5
12 18.02 штиль 0 3000 м 5/5 200 м
[Cb cap]
+28.8 +33.0 100 +50 +50 опасность
перегрева
1010.8 1010.0 +35.1
00 19.02 ЮЗ 1 3000 м туман местами 3/3 200 м
[Frnb]
+20.0 +18.5 91 +24 +24 комфорт 1012.2 1011.4 +19.2
03 19.02 ЮВ 1 5000 м {туман} ясно +25.0 +21.9 83 +32 +45 очень
душно
1013.2 1012.4
06 19.02 СВ 1 5000 м ясно +32.4 +24.8 64 +45 +66 опасность
перегрева
1012.4 1011.6
09 19.02 СЗ 3 5000 м 3/3 200 м
[Cu Sc]
+32.0 +23.6 61 +43 +47 опасность
перегрева
1011.1 1010.3
12 19.02 СЗ 2 3000 м ясно +28.0 +22.0 70 +36 +36 очень
душно
1011.7 1010.9 +34.2
00 20.02 СВ 1 3000 м туман местами ясно +19.7 +18.5 93 +24 +24 комфорт 1013.2 1012.4 +19.0
03 20.02 ЮВ 1 3000 м {туман} ясно +25.2 +21.9 82 +32 +46 очень
душно
1015.4 1014.6
06 20.02 СВ 3 5000 м ясно +32.0 +18.4 44 +37 +51 опасность
солнечного
удара
1013.5 1012.7
09 20.02 С 2 5000 м ясно +34.4 +20.6 45 +41 +48 опасность
перегрева
1011.1 1010.3
12 20.02 С 2 3000 м ясно +29.0 +21.5 64 +37 +37 очень
душно
1012.0 1011.2 +36.2
00 21.02 ЮЗ 1 3000 м туман местами ясно +19.6 +18.5 93 +23 +23 комфорт 1013.2 1012.4 +18.8
03 21.02 СЗ 1 5000 м {туман} ясно +23.0 +19.8 82 +30 +43 очень
душно
1015.1 1014.3
06 21.02 СВ 1 5000 м ясно +32.2 +18.4 44 +37 +58 опасность
солнечного
удара
1013.3 1012.5
09 21.02 СВ 1 5000 м ясно +35.0 +20.2 42 +41 +48 опасность
перегрева
1011.6 1010.8
12 21.02 З 1 3000 м ясно +30.0 +18.5 50 +35 +35 очень
душно
1011.1 1010.3 +36.8
00 22.02 СЗ 1 3000 м туман местами ясно +19.0 +17.5 91 +22 +22 комфорт 1012.3 1011.5 +18.2
03 22.02 СЗ 2 5000 м {туман} ясно +24.0 +18.5 71 +28 +40 душно 1012.9 1012.1
06 22.02 СВ 1 5000 м ясно +33.0 +21.2 50 +41 +62 опасность
перегрева
1011.6 1010.8

 

Местоположение метеостанции Йе (Мьянма): широта 15.25 долгота 97.87 высота над уровнем моря 7 м.

В архиве по умолчанию представлена погода в Йе за последнюю неделю. Архивные данные за месяц целиком и за предыдущие месяцы, начиная с января 2011 года, Вы можете получить, выбрав интересующий диапазон дат из раскрывающегося списка и нажав кнопку "Ввод!".


*Определитесь, кто Вы:
робот инопланетянин человек

Внимание! Время в таблицах - всемирное. Для получения местного времени необходимо прибавить поправку, которая равна 6.5 ч.

Смотрите также архив погоды в соседних городах и на ближайших метеорологических станциях:

Погода в Тхонг Пха Пхум (Таиланд) (99 км)
Погода в Тавое (Мьянма) (133 км)
Погода в Умпханге (Таиланд) (137 км)
Погода в Моламьяйне (Мьянма) (142 км)
Погода в Пхаане (Мьянма) (168 км)
Погода в Мэй Сот (Таиланд) (174 км)
Погода в Дои Му Со Агромете (Таиланд) (202 км)
Погода в Кампхэнгпхете (Таиланд) (224 км)
Погода в Канчанабури (Таиланд) (225 км)
Погода в Таке (Таиланд) (227 км)

Пояснения к столбцам:

Ветер - указаны скорость ветра в м/с - средняя за 10 мин, порывы в срок и между сроками (в фигурных скобках) и направление, откуда дует ветер: С - северный, СВ - северо-восточный, В - восточный, ЮВ - юго-восточный, Ю - южный, ЮЗ - юго-западный, З - западный, СЗ - северо-западный.
Видимость - горизонтальная дальность видимости в метрах или километрах. При видимости от 1 до 10 км при отсутствии осадков обычно наблюдается дымка, при ухудшении видимости до 1 км и менее - туман. В сухую погоду видимость может ухудшаться дымом, пылью или мглою.
Явления - указаны атмосферные явления, наблюдавшиеся в срок или в последний час перед сроком; фигурными скобками обозначены явления, наблюдавшиеся между сроками (за 1-3 часа до срока); квадратными скобками обозначены град или гололедные отложения с указанием их диаметра в мм.
Облачность - указаны через наклонную черту общая и нижняя облачность в баллах и высота нижней границы облаков в метрах; квадратными скобками обозначены формы облаков: Ci - перистые, Cs - перисто-слоистые, Cc - перисто-кучевые, Ac - высококучевые, As - высокослоистые, Sc - слоисто-кучевые, Ns - слоисто-дождевые, Cu - кучевые, Cb - кучево-дождевые. Подробнее классификацию облаков см. в Атласе облаков (PDF).
T - Температура воздуха - температура, измеренная на высоте 2 м над землей.
Td - Температура точки росы - температура, при понижении до которой содержащийся в воздухе водяной пар достигнет насыщения.
f - Относительная влажность воздуха - влажноcть воздуха, измеренная на высоте 2 м над землей.
Te - Эффективная температура - температура, которую ощущает одетый по сезону человек в тени. Характеристика душности погоды. При расчете учитывается влияние влажности воздуха и скорости ветра на теплоощущения человека.
Tes - Эффективная температура на солнце - температура, которую ощущает человек, с поправкой на солнечный нагрев. Характеристика знойности погоды. Зависит от высоты солнца над горизонтом, облачности и скорости ветра. Ночью, в пасмурную погоду, а также при ветре 12 м/с и более поправка равна нулю.
P - Атмосферное давление - приведенное к уровню моря атмосферное давление.
Po - Атмосферное давление - измеренное на уровне метеостанции атмосферное давление.
Tmin - Минимальная температура - минимум температуры воздуха на высоте 2 м над землей.
Tmax - Максимальная температура - максимум температуры воздуха на высоте 2 м над землей.
R - Количество осадков - Количество выпавших осадков за период времени, мм. При наведении курсора мыши на число - период времени, за который выпало указанное количество осадков.
R24 - Количество осадков - Количество выпавших осадков за 24 часа, мм.
S - Снежный покров - Высота снежного покрова, см. При наведении курсора мыши на число - состояние снежного покрова и степень покрытия местности в баллах.